We konden geen weer-waarchuwingen ophalen. Ga rechtstreeks naar de Meteoalarm site : www.meteoalarm.eu en controleer daar .



Onweer radar Meer informatie blitzortung!


Regen radar Meer informatie rain snow radar


Bezoek onze andere website:

Template documentation
and downloads

And another site



15 daagse weersverwachting Jönköping (SE)

  • Overzicht
  • Per uur
  • 15 dagen
  • Extra
  • Vergelijk
  • Kaarten
  • Dagkaart
  • Meer »
  • Info
  • Statistieken
  • Directe link
    Temp 6h Neerslag Wind  
 05:34     20:41    Daglengte: 15:07 Vandaag
14:00
24°
 
3
20:00
21°
 
2
 05:37     20:39    Daglengte: 15:02 Morgen
02:00
16°
 
1
08:00
18°
 
1
14:00
24°
 
2
20:00
21°
 
1
 05:39     20:36    Daglengte: 14:57 Vrijdag 19 Aug
02:00
19°
 
2
08:00
19°
 
1
14:00
22°
 
3
20:00
21°
 
2
 05:41     20:33    Daglengte: 14:52 Zaterdag 20 Aug
02:00
19°
7.3 mm
2
08:00
19°
7.4 mm
3
Locatie info
Region: Jönköpings län
Latitude: 57.7798°N
Longitude: 14.1765°E
100 masl
Postcode: 553 22
Temp/Neerslag /Baro Onweer/Dauwpunt
    Temp Baro 1h Neerslag Dauwpunt Wind UV Bewolking  
 05:34     20:41    Daglengte: 15:07 Vandaag
12:00
22°
1012.2 hPa   18.6°
3
Windvlaag: 4 m/s
6%
13:00
23°
1012.2 hPa
12%
17.7°
3
Windvlaag: 3.6 m/s
9%
14:00
24°
1012.2 hPa   16.8°
3
Windvlaag: 3.6 m/s
10%
15:00
25°
1012.1 hPa   16.2°
3
Windvlaag: 3.7 m/s
19%
16:00
25°
1012.0 hPa   16.7°
3
Windvlaag: 3.8 m/s
35%
17:00
25°
1012.1 hPa   16.0°
3
Windvlaag: 3.2 m/s
21%
18:00
24°
1012.2 hPa   15.7°
3
Windvlaag: 2.9 m/s
26%
19:00
23°
1012.5 hPa   15.4°
2
Windvlaag: 1.7 m/s
51%
20:00
21°
1012.9 hPa   15.7°
2
Windvlaag: 1 m/s
48%
21:00
20°
1013.5 hPa   16.3°
1
Windvlaag: 2 m/s
55%
22:00
20°
1013.9 hPa   17.0°
1
Windvlaag: 2 m/s
64%
23:00
19°
1014.2 hPa   16.8°
1
Windvlaag: 1.7 m/s
29%
 05:37     20:39    Daglengte: 15:02 Morgen
00:00
18°
1014.8 hPa   16.3°
1
Windvlaag: 1.8 m/s
67%
01:00
17°
1014.9 hPa   16.0°
1
Windvlaag: 1.5 m/s
71%
02:00
16°
1015.0 hPa   15.7°
1
Windvlaag: 1.3 m/s
73%
03:00
16°
1015.1 hPa   15.6°
1
Windvlaag: 0.6 m/s
80%
04:00
16°
1015.0 hPa   15.9°
1
Windvlaag: 0.6 m/s
80%
05:00
16°
1015.1 hPa   15.8°
1
Windvlaag: 0.1 m/s
60%
06:00
16°
1015.1 hPa   15.8°
1
Windvlaag: -0.1 m/s
71%
07:00
17°
1015.5 hPa   16.2°
1
Windvlaag: -0.3 m/s
73%
08:00
18°
1015.8 hPa   16.9°
1
Windvlaag: -0.8 m/s
69%
09:00
19°
1015.9 hPa   16.5°
2
Windvlaag: -1.5 m/s
72%
10:00
21°
1015.9 hPa   14.7°
2
Windvlaag: -2 m/s
66%
11:00
22°
1015.8 hPa   12.6°
2
Windvlaag: -2.5 m/s
63%
12:00
22°
1015.6 hPa   11.9°
2
Windvlaag: -3.5 m/s
53%
13:00
23°
1015.4 hPa
13%
11.2°
2
Windvlaag: -3.8 m/s
57%
14:00
24°
1015.3 hPa
27%
10.2°
2
Windvlaag: -3.8 m/s
71%
15:00
23°
1014.8 hPa
71%
9.5°
2
Windvlaag: -3.5 m/s
80%
16:00
23°
1014.6 hPa
76%
15.1°
2
Windvlaag: -3.1 m/s
63%
17:00
22°
1014.5 hPa
80%
13.9°
2
Windvlaag: -2.4 m/s
72%
18:00
22°
1014.2 hPa
80%
13.3°
2
Windvlaag: -1.9 m/s
31%
19:00
21°
1014.2 hPa
80%
14.5°
2
Windvlaag: -1.4 m/s
33%
20:00
21°
1014.2 hPa
80%
16.0°
1
Windvlaag: -0.1 m/s
12%
21:00
20°
1014.5 hPa
67%
17.9°
2
Windvlaag: 1.7 m/s
11%
22:00
20°
1014.4 hPa
26%
18.8°
1
Windvlaag: 2.2 m/s
9%
23:00
20°
1014.5 hPa
15%
18.8°
2
Windvlaag: 5.5 m/s
6%
 05:39     20:36    Daglengte: 14:57 Vrijdag 19 Aug
00:00
20°
1014.6 hPa
60%
18.6°
3
Windvlaag: 7 m/s
7%
01:00
20°
1014.5 hPa
14%
18.0°
3
Windvlaag: 6.9 m/s
10%
02:00
19°
1014.3 hPa
13%
17.6°
2
Windvlaag: 6.7 m/s
11%
03:00
18°
1014.2 hPa
13%
17.2°
2
Windvlaag: 5.6 m/s
13%
04:00
18°
1014.2 hPa
13%
16.8°
2
Windvlaag: 4.5 m/s
9%
05:00
18°
1012.7 hPa
21%
16.0°
2
Windvlaag: 3.5 m/s
12%
06:00
18°
1012.8 hPa
21%
16.6°
1
Windvlaag: 2.2 m/s
74%
07:00
18°
1012.9 hPa
21%
16.6°
1
Windvlaag: 1.9 m/s
81%
08:00
19°
1012.8 hPa
21%
16.5°
1
Windvlaag: 1.5 m/s
73%
09:00
20°
1012.8 hPa
21%
17.1°
1
Windvlaag: 2.2 m/s
80%
10:00
21°
1012.8 hPa
21%
17.4°
2
Windvlaag: 0.9 m/s
77%
11:00
21°
1012.6 hPa
21%
18.2°
2
Windvlaag: 0.8 m/s
81%
12:00
21°
1012.3 hPa
21%
19.0°
3
Windvlaag: -0.6 m/s
81%
13:00
22°
1012.0 hPa
21%
19.8°
3
Windvlaag: -2.6 m/s
69%
14:00
22°
1011.5 hPa
21%
20.0°
3
Windvlaag: -3.3 m/s
79%
15:00
22°
1011.1 hPa
22%
20.4°
2
Windvlaag: -3.5 m/s
79%
16:00
22°
1010.7 hPa
25%
20.9°
2
Windvlaag: -2.8 m/s
78%
17:00
23°
1010.3 hPa
25%
20.4°
3
Windvlaag: -2.5 m/s
81%
18:00
22°
1010.1 hPa
47%
20.5°
3
Windvlaag: -4.7 m/s
97%
19:00
22°
1009.8 hPa
100%
20.2°
3
Windvlaag: -4 m/s
98%
20:00
21°
1009.9 hPa
100%
20.1°
2
Windvlaag: -4.5 m/s
85%
21:00
20°
1010.1 hPa 3.5 mm
95%
19.4°
2
Windvlaag: -3.7 m/s
88% warningclass
22:00
20°
1010.1 hPa 3.8 mm
76%
19.5°
2
Windvlaag: -2.7 m/s
83% warningclass
23:00
19°
1009.9 hPa
80%
19.2°
1
Windvlaag: -3.2 m/s
71%
 05:41     20:33    Daglengte: 14:52 Zaterdag 20 Aug
00:00
19°
1011.3 hPa
24%
18.6°
1
Windvlaag: 6.1 m/s
17%
01:00
18°
1010.8 hPa
21%
18.2°
1
Windvlaag: 5.2 m/s
19%
02:00
19°
1010.7 hPa
74%
18.6°
2
Windvlaag: 4 m/s
20%
03:00
18°
1010.3 hPa 3.5 mm
80%
16.9°
2
Windvlaag: 6 m/s
29%
04:00
18°
1010.1 hPa 4.0 mm
94%
15.6°
2
Windvlaag: 5.3 m/s
37%
05:00
17°
1009.7 hPa
45%
15.8°
2
Windvlaag: 4.8 m/s
86%
06:00
17°
1009.5 hPa
24%
16.7°
2
Windvlaag: 4.9 m/s
63%
07:00
18°
1009.4 hPa
24%
17.7°
2
Windvlaag: 5.7 m/s
75%
08:00
19°
1009.3 hPa
22%
18.6°
3
Windvlaag: 4.5 m/s
79%
09:00
16°
1010.9 hPa 10.1 mm
100%
16.0°
2
Windvlaag: 5 m/s
100%
10:00
17°
1010.9 hPa 10.1 mm
100%
16.1°
2
Windvlaag: 4 m/s
99%
11:00
19°
1010.6 hPa 10.1 mm
100%
16.4°
2
Windvlaag: 3.7 m/s
82%
Temp/Neerslag /Baro Onweer/Dauwpunt
    Temp Baro Neerslag Dauwpunt Wind Bewolking  
 05:34     20:41    Daglengte: 15:07 Vandaag
14:00
24°
1012.2 hPa   16.8°
3
10%
17:00
25°
1012.1 hPa   16.0°
3
21%
20:00
21°
1012.9 hPa   15.7°
2
48%
23:00
19°
1014.2 hPa   16.8°
1
29%
 05:37     20:39    Daglengte: 15:02 Morgen
02:00
16°
1015.0 hPa   15.7°
1
73%
05:00
16°
1015.1 hPa   15.8°
1
60%
08:00
18°
1015.8 hPa   16.9°
1
69%
11:00
22°
1015.8 hPa   12.6°
2
63%
14:00
24°
1015.3 hPa   10.2°
2
71%
17:00
22°
1014.5 hPa   13.9°
2
72%
20:00
21°
1014.2 hPa   16.0°
1
12%
23:00
20°
1014.5 hPa   18.8°
2
6%
 05:39     20:36    Daglengte: 14:57 Vrijdag 19 Aug
02:00
19°
1014.3 hPa   17.6°
2
11%
05:00
18°
1012.7 hPa   16.0°
2
12%
08:00
19°
1012.8 hPa   16.5°
1
73%
11:00
21°
1012.6 hPa   18.2°
2
81%
14:00
22°
1011.5 hPa   20.0°
3
79%
17:00
23°
1010.3 hPa   20.4°
3
81%
20:00
21°
1009.9 hPa   20.1°
2
85%
23:00
19°
1009.9 hPa 7.3 mm 19.2°
1
71%
 05:41     20:33    Daglengte: 14:52 Zaterdag 20 Aug
02:00
19°
1010.7 hPa   18.6°
2
20%
05:00
17°
1009.7 hPa 7.4 mm 15.8°
2
86%
08:00
19°
1009.3 hPa   18.6°
3
79%
11:00
19°
1010.6 hPa 30.4 mm 16.4°
2
82%
14:00
21°
1011.2 hPa 30.4 mm 11.4°
2
85%
17:00
21°
1011.4 hPa 35.6 mm 12.9°
2
1%
20:00
18°
1012.4 hPa 35.6 mm 14.4°
3
1%
23:00
14°
1012.9 hPa 35.6 mm 10.4°
3
1%
 05:43     20:31    Daglengte: 14:48 Zondag 21 Aug
02:00
13°
1013.3 hPa 35.6 mm 10.6°
2
1%
05:00
12°
1012.6 hPa 35.6 mm 10.8°
3
1%
08:00
15°
1012.4 hPa 35.6 mm 11.1°
3
1%
11:00
20°
1011.8 hPa 35.6 mm 11.8°
4
0%
14:00
20°
1011.8 hPa 35.6 mm 12.1°
4
0%
17:00
21°
1011.0 hPa 35.6 mm 12.4°
5
1%
20:00
18°
1011.4 hPa 35.7 mm 13.0°
3
1%
23:00
15°
1011.2 hPa 35.7 mm 11.9°
3
1%
 05:45     20:28    Daglengte: 14:43 Maandag 22 Aug
02:00
15°
1011.5 hPa 35.7 mm 11.8°
2
1%
05:00
14°
1011.1 hPa 35.8 mm 11.8°
4
1%
08:00
15°
1012.1 hPa 35.8 mm 11.5°
4
1%
11:00
19°
1012.0 hPa 35.8 mm 9.0°
5
0%
14:00
21°
1012.5 hPa 35.8 mm 7.1°
5
0%
17:00
20°
1013.6 hPa 35.8 mm 7.6°
6
1%
20:00
16°
1015.4 hPa 35.8 mm 9.6°
3
0%
23:00
12°
1017.4 hPa 35.8 mm 9.2°
3
0%
 05:47     20:26    Daglengte: 14:39 Dinsdag 23 Aug
02:00
11°
1019.3 hPa 35.8 mm 9.3°
2
0%
05:00
10°
1020.8 hPa 35.8 mm 8.8°
2
0%
08:00
14°
1022.3 hPa 35.8 mm 9.8°
2
0%
11:00
19°
1023.0 hPa 35.8 mm 8.6°
1
1%
14:00
22°
1023.3 hPa 35.8 mm 8.2°
0
1%
17:00
22°
1023.1 hPa 35.8 mm 7.8°
1
0%
20:00
17°
1023.7 hPa 35.8 mm 10.1°
2
0%
23:00
15°
1024.9 hPa 35.8 mm 9.4°
4
0%
 05:49     20:23    Daglengte: 14:34 Woensdag 24 Aug
02:00
12°
1025.6 hPa 35.8 mm 8.8°
3
0%
05:00
11°
1025.2 hPa 35.8 mm 9.3°
2
0%
08:00
15°
1024.2 hPa 35.8 mm 10.0°
4
0%
11:00
21°
1023.3 hPa   12.9°
4
0%
14:00
24°
1021.7 hPa 71.6 mm 11.6°
4
0%
20:00
19°
1021.6 hPa 71.6 mm 14.2°
3
0%
 05:51     20:20    Daglengte: 14:29 Donderdag 25 Aug
02:00
16°
1021.0 hPa 71.7 mm 15.3°
2
1%
08:00
17°
1020.3 hPa 71.7 mm 14.7°
2
1%
14:00
24°
1019.3 hPa 71.7 mm 15.7°
1
1%
20:00
19°
1019.0 hPa 72.8 mm 17.1°
1
1%
 05:54     20:17    Daglengte: 14:23 Vrijdag 26 Aug
02:00
17°
1018.8 hPa 77.3 mm 15.9°
1
0%
08:00
19°
1020.0 hPa 77.4 mm 17.0°
2
0%
14:00
27°
Voelt als: 27.4°
1020.3 hPa 77.4 mm 14.1°
2
0%
20:00
21°
1022.4 hPa 78.6 mm 15.9°
3
1%
 05:56     20:15    Daglengte: 14:19 Zaterdag 27 Aug
02:00
18°
1023.8 hPa 79.2 mm 15.2°
1
1%
08:00
16°
1022.5 hPa 0.3 mm 12.2°
0
54%
14:00
24°
1022.2 hPa 0.1 mm 11.6°
0
50%
20:00
19°
1022.2 hPa   12.2°
0
58%
 05:58     20:12    Daglengte: 14:14 Zondag 28 Aug
02:00
14°
1023.3 hPa 0.4 mm 11.5°
0
47%
08:00
15°
1023.4 hPa 0.6 mm 11.6°
0
55%
14:00
23°
1023.1 hPa 0.4 mm 11.6°
0
54%
20:00
18°
1022.9 hPa 0.5 mm 11.4°
0
47%
 06:00     20:09    Daglengte: 14:09 Maandag 29 Aug
02:00
13°
1023.7 hPa 0.3 mm 10.8°
0
37%
08:00
15°
1023.4 hPa 0.2 mm 11.3°
0
43%
14:00
23°
1022.7 hPa 0.3 mm 11.5°
0
47%
20:00
18°
1021.9 hPa 0.4 mm 12.1°
0
43%
 06:02     20:07    Daglengte: 14:05 Dinsdag 30 Aug
02:00
13°
1022.4 hPa 0.1 mm 10.9°
1
39%
08:00
15°
1021.9 hPa 0.2 mm 11.1°
1
44%
14:00
23°
1020.9 hPa 0.4 mm 11.0°
1
52%
20:00
18°
1019.9 hPa 0.6 mm 11.3°
1
55%
 06:04     20:04    Daglengte: 14:00 Woensdag 31 Aug
02:00
14°
1019.8 hPa 0.3 mm 10.5°
1
50%
08:00
15°
1018.7 hPa 0.3 mm 10.8°
1
52%
14:00
22°
1017.4 hPa 0.7 mm 11.6°
1
56%
20:00
17°
1016.5 hPa 0.8 mm 11.3°
0
56%
 06:06     20:01    Daglengte: 13:55 Donderdag 01 Sep
02:00
13°
1016.5 hPa 0.8 mm 10.5°
1
52%
08:00
14°
1015.8 hPa 0.5 mm 11.1°
1
60%
  CAPE Lifted Index Hail Supercell Tornado SRH 3km CL BTM PRES CL TOP PRES Swiss DWD icon SMHI TS
 05:34     20:41    Daglengte: 15:07 Vandaag
12:00 309 J/kg -1.5 K 0 % 0 % 0 % 0 m²/s² 0 0 0.45 1
13:00 287 J/kg -0.9 K 0 % 0 % 0 % 0 m²/s² 0 0 0.63 1
14:00 293 J/kg -1.0 K 0 % 0 % 0 % 0 m²/s² 0 0 0.38 2
15:00 281 J/kg -0.7 K 0 % 0 % 0 % 0 m²/s² 0 0 0.56 1
16:00 252 J/kg -0.9 K 0 % 0 % 0 % 0 m²/s² 0 0 0.6 3
17:00 146 J/kg -0.4 K 0 % 0 % 0 % 0 m²/s² 0 0 1.19 2
18:00 22 J/kg 0.0 K 0 % 0 % 0 % 0 m²/s² 0 0 2.04 2
19:00 7 J/kg 0.5 K 0 % 0 % 0 % 0 m²/s² 0 0 2.21 3
20:00 0 J/kg 1.2 K 0 % 0 % 0 % 0 m²/s² 0 0 3 3
21:00 0 J/kg 1.5 K 0 % 0 % 0 % 0 m²/s² 0 0 3.66 3
22:00 0 J/kg 1.6 K 0 % 0 % 0 % 0 m²/s² 0 0 3.79 3
23:00 0 J/kg 1.4 K 0 % 0 % 0 % 0 m²/s² 0 0 3.38 2
 05:37     20:39    Daglengte: 15:02 Morgen
00:00 0 J/kg 0.7 K 0 % 0 % 0 % 0 m²/s² 0 0 2.56 3
01:00 0 J/kg 0.4 K 0 % 0 % 0 % 0 m²/s² 0 0 2.11 45
02:00 0 J/kg 0.4 K 0 % 0 % 0 % 0 m²/s² 0 0 1.9 45
03:00 0 J/kg 0.7 K 0 % 0 % 0 % 0 m²/s² 0 0 2.08 45
04:00 0 J/kg 1.1 K 0 % 0 % 0 % 0 m²/s² 0 0 2.36 45
05:00 0 J/kg 1.0 K 0 % 0 % 0 % 0 m²/s² 0 0 2.32 45
06:00 0 J/kg 0.9 K 0 % 0 % 0 % 0 m²/s² 0 0 2.43 45
07:00 0 J/kg 0.8 K 0 % 0 % 0 % 0 m²/s² 0 0 2.51 3
08:00 0 J/kg 0.7 K 0 % 0 % 0 % 0 m²/s² 0 0 2.29 3
09:00 39 J/kg -0.3 K 0 % 0 % 0 % 0 m²/s² 0 0 1.74 3
10:00 52 J/kg -0.4 K 0 % 0 % 0 % 0 m²/s² 0 0 1.7 3
11:00 53 J/kg -0.5 K 0 % 0 % 0 % 0 m²/s² 0 0 1.66 3
12:00 101 J/kg -0.8 K 0 % 0 % 0 % 0 m²/s² 0 0 1.3 3
13:00 130 J/kg -1.2 K 0 % 0 % 0 % 0 m²/s² 0 0 0.9 3
14:00 148 J/kg -1.0 K 0 % 0 % 0 % 0 m²/s² 0 0 0.92 3
15:00 193 J/kg -1.1 K 0 % 0 % 0 % 0 m²/s² 0 0 0.61 3
16:00 288 J/kg -1.7 K 0 % 0 % 0 % 0 m²/s² 0 0 -0.14 3
17:00 472 J/kg -2.3 K 0 % 0 % 0 % 0 m²/s² 0 0 -0.92 80
18:00 606 J/kg -2.3 K 0 % 0 % 0 % 0 m²/s² 0 0 -0.98 3
19:00 627 J/kg -2.7 K 0 % 0 % 0 % 0 m²/s² 0 0 -1.26 80
20:00 754 J/kg -3.3 K 0 % 0 % 0 % 0 m²/s² 0 0 -2.13 2
21:00 714 J/kg -3.7 K 0 % 0 % 0 % 0 m²/s² 0 0 -2.44 2
22:00 459 J/kg -3.0 K 0 % 0 % 0 % 0 m²/s² 0 0 -1.68 2
23:00 380 J/kg -2.5 K 0 % 0 % 0 % 0 m²/s² 0 0 -1.24 2
 05:39     20:36    Daglengte: 14:57 Vrijdag 19 Aug
00:00 97 J/kg -1.5 K 0 % 0 % 0 % 0 m²/s² 0 0 -0.24 45
01:00 0 J/kg -0.7 K 0 % 0 % 0 % 0 m²/s² 0 0 0.8 45
02:00 0 J/kg -0.7 K 0 % 0 % 0 % 0 m²/s² 0 0 0.56 45
03:00 0 J/kg -1.0 K 0 % 0 % 0 % 0 m²/s² 0 0 0.44 45
04:00 0 J/kg -0.9 K 0 % 0 % 0 % 0 m²/s² 0 0 -0.12 45
05:00 0 J/kg -0.8 K 0 % 0 % 0 % 0 m²/s² 0 0 -0.62 1
06:00 0 J/kg -1.7 K 0 % 0 % 0 % 0 m²/s² 0 0 -1.7 2
07:00 0 J/kg -1.4 K 0 % 0 % 0 % 0 m²/s² 0 0 -1.22 1
08:00 0 J/kg -1.7 K 0 % 0 % 0 % 0 m²/s² 0 0 -1.31 0
09:00 178 J/kg -1.0 K 0 % 0 % 0 % 0 m²/s² 0 0 -0.7 0
10:00 410 J/kg -2.1 K 0 % 0 % 0 % 0 m²/s² 0 0 -1.62 0
11:00 412 J/kg -1.8 K 0 % 0 % 0 % 0 m²/s² 0 0 -1.8 1
12:00 212 J/kg -2.4 K 0 % 0 % 0 % 0 m²/s² 0 0 -2.4 1
13:00 650 J/kg -2.7 K 0 % 0 % 0 % 0 m²/s² 0 0 -2.67 1
14:00 824 J/kg -3.0 K 0 % 0 % 0 % 0 m²/s² 0 0 -2.46 1
15:00 810 J/kg -3.1 K 0 % 0 % 0 % 0 m²/s² 0 0 -2.47 2
16:00 831 J/kg -2.9 K 0 % 0 % 0 % 0 m²/s² 0 0 -1.49 2
17:00 1154 J/kg -3.7 K 0 % 0 % 0 % 0 m²/s² 0 0 -2.47 2
18:00 1293 J/kg -4.6 K 0 % 0 % 0 % 0 m²/s² 0 0 -3.64 3
19:00 1190 J/kg -4.4 K 0 % 0 % 0 % 0 m²/s² 0 0 -3.74 3
20:00 1032 J/kg -4.0 K 0 % 0 % 0 % 0 m²/s² 0 0 -2.83 3
21:00 999 J/kg -3.5 K 0 % 0 % 0 % 0 m²/s² 0 0 -2.06 3
22:00 1011 J/kg -3.9 K 0 % 0 % 0 % 0 m²/s² 0 0 -2.34 3
23:00 640 J/kg -2.6 K 0 % 0 % 0 % 0 m²/s² 0 0 -0.8 2
 05:41     20:33    Daglengte: 14:52 Zaterdag 20 Aug
00:00 0 J/kg -1.8 K 0 % 0 % 0 % 0 m²/s² 0 0 0.33 2
01:00 0 J/kg -1.4 K 0 % 0 % 0 % 0 m²/s² 0 0 1.24 2
02:00 2 J/kg -1.0 K 0 % 0 % 0 % 0 m²/s² 0 0 2.57 2
03:00 0 J/kg -0.4 K 0 % 0 % 0 % 0 m²/s² 0 0 4.61 2
04:00 0 J/kg 0.1 K 0 % 0 % 0 % 0 m²/s² 0 0 5.8 80
05:00 0 J/kg 1.5 K 0 % 0 % 0 % 0 m²/s² 0 0 6.9 3
06:00 0 J/kg 3.5 K 0 % 0 % 0 % 0 m²/s² 0 0 8.48 3
07:00 1 J/kg 4.3 K 0 % 0 % 0 % 0 m²/s² 0 0 8.8 3
08:00 3 J/kg 3.9 K 0 % 0 % 0 % 0 m²/s² 0 0 7.86 3
09:00 5 J/kg 3.1 K 0 % 0 % 0 % 0 m²/s² 0 0 6.67
10:00 3 J/kg 2.1 K 0 % 0 % 0 % 0 m²/s² 0 0 5.4
11:00 4 J/kg 2.0 K 0 % 0 % 0 % 0 m²/s² 0 0 5.03
Temp Baro Wind Neerslag
  EWN Forecast EWN WRFDA DWD ICON FMI HIRLAM MET Norway GFS
 05:34     20:41    Daglengte: 15:07 Vandaag
14:00 24.3° 1012.2 hPa 2.6 m/s 0.0 mm 24.9° 1011.7 hPa 2.7 m/s 0.0 mm 24.9° 1011.9 hPa 3.2 m/s -2.0 mm 25.1° 1012.5 hPa 2.2 m/s 0.0 mm 26.9° 1011.0 hPa 3.0 m/s
17:00 24.6° 1012.1 hPa 2.9 m/s 0.0 mm 25.0° 1011.6 hPa 3.5 m/s 0.0 mm 25.2° 1011.7 hPa 3.4 m/s 0.0 mm 25.5° 1012.6 hPa 2.8 m/s 0.0 mm 26.8° 1011.0 hPa 4.2 m/s
20:00 21.4° 1012.9 hPa 1.6 m/s 0.0 mm 22.0° 1012.6 hPa 2.7 m/s 0.0 mm 21.3° 1012.9 hPa 1.8 m/s 0.0 mm 22.9° 1013.4 hPa 1.5 m/s 0.0 mm 21.7° 1012.3 hPa 2.6 m/s
23:00 18.6° 1014.2 hPa 1.3 m/s 0.0 mm 18.4° 1013.6 hPa 2.4 m/s 0.0 mm 16.8° 1014.1 hPa 1.3 m/s 0.0 mm 18.8° 1015.3 hPa 1.2 m/s 0.0 mm 18.0° 1013.7 hPa 1.0 m/s
 05:37     20:39    Daglengte: 15:02 Morgen
02:00 16.5° 1015.0 hPa 0.9 m/s 0.0 mm 17.1° 1014.0 hPa 0.9 m/s 0.0 mm 15.0° 1015.1 hPa 1.3 m/s 0.0 mm 16.1° 1015.9 hPa 0.9 m/s 0.0 mm 16.7° 1014.0 hPa 0.4 m/s
05:00 16.2° 1015.1 hPa 0.9 m/s 0.0 mm 16.3° 1014.2 hPa 1.4 m/s 0.0 mm 14.8° 1015.2 hPa 0.8 m/s 0.0 mm 15.9° 1016.1 hPa 0.8 m/s 0.0 mm 16.2° 1014.2 hPa 0.4 m/s
08:00 18.3° 1015.8 hPa 0.6 m/s 0.0 mm 19.6° 1014.9 hPa 1.6 m/s 0.0 mm 17.6° 1015.8 hPa 0.2 m/s 0.0 mm 18.2° 1016.8 hPa 0.4 m/s 0.0 mm 19.3° 1015.0 hPa 1.4 m/s
11:00 21.5° 1015.8 hPa 1.9 m/s 0.0 mm 23.0° 1014.7 hPa 2.0 m/s 0.0 mm 21.1° 1015.9 hPa 1.7 m/s 0.0 mm 24.8° 1016.8 hPa 1.4 m/s 0.0 mm 23.6° 1014.4 hPa 1.5 m/s
14:00 23.6° 1015.3 hPa 2.5 m/s 0.0 mm 25.3° 1013.6 hPa 2.3 m/s 0.0 mm 23.3° 1015.7 hPa 2.2 m/s 0.0 mm 28.1° 1015.8 hPa 1.3 m/s 0.0 mm 26.7° 1013.1 hPa 1.7 m/s
17:00 21.9° 1014.5 hPa 2.2 m/s 0.0 mm 24.6° 1012.5 hPa 1.8 m/s 0.5 mm 20.8° 1015.4 hPa 1.2 m/s 0.8 mm 26.8° 1015.0 hPa 2.0 m/s 0.0 mm 21.5° 1012.5 hPa 2.7 m/s
20:00 20.8° 1014.2 hPa 1.5 m/s 0.0 mm 23.3° 1012.1 hPa 3.9 m/s 2.2 mm 19.3° 1015.1 hPa 1.0 m/s 1.6 mm 23.9° 1014.7 hPa 2.6 m/s 0.0 mm 20.1° 1012.1 hPa 0.7 m/s
23:00 20.0° 1014.5 hPa 1.7 m/s 0.0 mm 20.5° 1012.0 hPa 4.6 m/s 2.4 mm 17.5° 1015.0 hPa 0.4 m/s 0.0 mm 20.8° 1015.9 hPa 2.6 m/s 0.0 mm 18.8° 1013.0 hPa 2.8 m/s
 05:39     20:36    Daglengte: 14:57 Vrijdag 19 Aug
02:00 18.9° 1014.3 hPa 2.4 m/s 0.0 mm 19.2° 1011.7 hPa 2.9 m/s 2.4 mm 16.2° 1014.8 hPa 0.8 m/s 0.0 mm 19.1° 1015.7 hPa 2.2 m/s 0.0 mm 17.7° 1013.1 hPa 2.1 m/s
05:00 18.2° 1012.7 hPa 1.5 m/s 0.0 mm 18.8° 1010.8 hPa 2.0 m/s 2.8 mm 14.9° 1014.8 hPa 0.9 m/s 0.0 mm 17.2° 1013.1 hPa 1.9 m/s
08:00 18.7° 1012.8 hPa 0.8 m/s 0.0 mm 19.6° 1009.6 hPa 2.8 m/s 7.0 mm 18.2° 1015.2 hPa 0.4 m/s 0.0 mm 18.9° 1013.4 hPa 0.9 m/s
11:00 21.4° 1012.6 hPa 2.4 m/s 0.0 mm 21.5° 1009.9 hPa 5.5 m/s 8.1 mm 23.5° 1014.6 hPa 0.9 m/s 0.0 mm 22.7° 1012.9 hPa 0.8 m/s
14:00 22.4° 1011.5 hPa 2.9 m/s 0.0 mm 21.8° 1008.5 hPa 3.2 m/s 13.3 mm 27.4° 1013.8 hPa 1.4 m/s 0.0 mm 22.8° 1011.2 hPa 0.8 m/s
17:00 22.5° 1010.3 hPa 3.1 m/s 0.0 mm 21.8° 1008.2 hPa 4.3 m/s 23.4 mm 27.3° 1012.3 hPa 1.9 m/s 0.0 mm 19.1° 1011.7 hPa 4.7 m/s
20:00 20.8° 1009.9 hPa 2.5 m/s 0.0 mm 20.4° 1009.1 hPa 2.6 m/s 29.3 mm 23.0° 1013.1 hPa 1.0 m/s 0.1 mm 18.4° 1012.0 hPa 2.2 m/s
23:00 19.4° 1009.9 hPa 1.2 m/s 7.3 mm 19.4° 1009.6 hPa 1.2 m/s 30.2 mm 19.9° 1012.3 hPa 1.0 m/s 0.1 mm 18.2° 1012.2 hPa 0.8 m/s
 05:41     20:33    Daglengte: 14:52 Zaterdag 20 Aug
02:00 18.8° 1010.7 hPa 2.2 m/s 0.0 mm 17.0° 1010.1 hPa 3.2 m/s 30.4 mm 19.2° 1010.8 hPa 1.9 m/s 0.0 mm 18.0° 1012.2 hPa 1.9 m/s
05:00 17.5° 1009.7 hPa 1.8 m/s 7.4 mm 14.0° 1010.4 hPa 2.2 m/s 30.4 mm 18.4° 1009.6 hPa 1.6 m/s 1.0 mm 17.2° 1011.9 hPa 1.9 m/s
08:00 18.9° 1009.3 hPa 2.6 m/s 0.0 mm 16.0° 1010.7 hPa 2.7 m/s 30.4 mm 19.7° 1008.9 hPa 2.6 m/s 0.0 mm 17.1° 1012.3 hPa 2.4 m/s
11:00 19.1° 1010.6 hPa 1.6 m/s 30.4 mm 19.1° 1010.6 hPa 1.6 m/s 30.4 mm 17.9° 1011.9 hPa 2.4 m/s
14:00 21.0° 1011.2 hPa 2.4 m/s 30.4 mm 21.0° 1011.2 hPa 2.4 m/s 30.4 mm 19.3° 1011.8 hPa 2.6 m/s
17:00 20.6° 1011.4 hPa 1.9 m/s 35.6 mm 20.6° 1011.4 hPa 1.9 m/s 35.6 mm
20:00 18.1° 1012.4 hPa 2.8 m/s 35.6 mm 18.1° 1012.4 hPa 2.8 m/s 35.6 mm
23:00 14.0° 1012.9 hPa 2.6 m/s 35.6 mm 14.0° 1012.9 hPa 2.6 m/s 35.6 mm
 05:43     20:31    Daglengte: 14:48 Zondag 21 Aug
02:00 12.5° 1013.3 hPa 2.5 m/s 35.6 mm 12.5° 1013.3 hPa 2.5 m/s 35.6 mm
05:00 11.9° 1012.6 hPa 2.8 m/s 35.6 mm 11.9° 1012.6 hPa 2.8 m/s 35.6 mm
08:00 15.2° 1012.4 hPa 3.4 m/s 35.6 mm 15.3° 1012.4 hPa 3.4 m/s 35.6 mm
11:00 20.0° 1011.8 hPa 4.5 m/s 35.6 mm 20.0° 1011.8 hPa 4.5 m/s 35.6 mm
14:00 20.3° 1011.8 hPa 3.7 m/s 35.6 mm 20.3° 1011.8 hPa 3.7 m/s 35.6 mm
17:00 21.1° 1011.0 hPa 4.6 m/s 35.6 mm 21.1° 1011.0 hPa 4.6 m/s 35.6 mm
20:00 17.6° 1011.4 hPa 2.6 m/s 35.7 mm 17.6° 1011.4 hPa 2.6 m/s 35.7 mm
23:00 14.8° 1011.2 hPa 2.9 m/s 35.7 mm 14.8° 1011.2 hPa 2.9 m/s 35.7 mm
 05:45     20:28    Daglengte: 14:43 Maandag 22 Aug
02:00 14.7° 1011.5 hPa 2.3 m/s 35.7 mm 14.7° 1011.5 hPa 2.3 m/s 35.7 mm
05:00 14.2° 1011.1 hPa 4.1 m/s 35.8 mm 14.3° 1011.1 hPa 4.1 m/s 35.8 mm
08:00 15.1° 1012.1 hPa 4.2 m/s 35.8 mm 15.1° 1012.1 hPa 4.2 m/s 35.8 mm
11:00 18.7° 1012.0 hPa 4.6 m/s 35.8 mm 18.7° 1012.0 hPa 4.6 m/s 35.8 mm
14:00 20.5° 1012.5 hPa 5.2 m/s 35.8 mm 20.5° 1012.5 hPa 5.2 m/s 35.8 mm
17:00 19.5° 1013.6 hPa 5.6 m/s 35.8 mm 19.5° 1013.6 hPa 5.6 m/s 35.8 mm
20:00 15.9° 1015.4 hPa 2.5 m/s 35.8 mm 15.9° 1015.4 hPa 2.5 m/s 35.8 mm
23:00 12.3° 1017.4 hPa 2.6 m/s 35.8 mm 12.3° 1017.4 hPa 2.6 m/s 35.8 mm
 05:47     20:26    Daglengte: 14:39 Dinsdag 23 Aug
02:00 11.0° 1019.3 hPa 2.3 m/s 35.8 mm 11.0° 1019.3 hPa 2.3 m/s 35.8 mm
05:00 10.3° 1020.8 hPa 2.1 m/s 35.8 mm 10.3° 1020.8 hPa 2.1 m/s 35.8 mm
08:00 13.7° 1022.3 hPa 1.6 m/s 35.8 mm 13.7° 1022.3 hPa 1.6 m/s 35.8 mm
11:00 19.2° 1023.0 hPa 1.0 m/s 35.8 mm 19.2° 1023.0 hPa 1.0 m/s 35.8 mm
14:00 21.8° 1023.3 hPa 0.2 m/s 35.8 mm 21.8° 1023.3 hPa 0.2 m/s 35.8 mm
17:00 21.6° 1023.1 hPa 1.4 m/s 35.8 mm 21.6° 1023.1 hPa 1.4 m/s 35.8 mm
20:00 16.6° 1023.7 hPa 2.2 m/s 35.8 mm 16.6° 1023.7 hPa 2.2 m/s 35.8 mm
23:00 15.0° 1024.9 hPa 3.6 m/s 35.8 mm 15.0° 1024.9 hPa 3.6 m/s 35.8 mm
 05:49     20:23    Daglengte: 14:34 Woensdag 24 Aug
02:00 12.3° 1025.6 hPa 2.6 m/s 35.8 mm 12.3° 1025.6 hPa 2.6 m/s 35.8 mm
05:00 11.2° 1025.2 hPa 1.9 m/s 35.8 mm 11.2° 1025.2 hPa 1.9 m/s 35.8 mm
08:00 15.4° 1024.2 hPa 3.5 m/s 35.8 mm 15.4° 1024.2 hPa 3.5 m/s 35.8 mm
11:00 21.4° 1023.3 hPa 3.9 m/s 35.8 mm 21.4° 1023.3 hPa 3.9 m/s 35.8 mm
14:00 24.3° 1021.7 hPa 3.7 m/s 35.8 mm 24.3° 1021.7 hPa 3.7 m/s 35.8 mm
20:00 19.3° 1021.6 hPa 3.4 m/s 35.8 mm 19.3° 1021.6 hPa 3.4 m/s 35.8 mm
 05:51     20:20    Daglengte: 14:29 Donderdag 25 Aug
02:00 16.2° 1021.0 hPa 2.0 m/s 35.9 mm 16.2° 1021.0 hPa 2.0 m/s 35.9 mm
08:00 16.5° 1020.3 hPa 2.5 m/s 35.9 mm 16.5° 1020.3 hPa 2.5 m/s 35.9 mm
14:00 24.4° 1019.3 hPa 1.0 m/s 35.9 mm 24.4° 1019.3 hPa 1.0 m/s 35.9 mm
20:00 19.2° 1019.0 hPa 1.2 m/s 36.9 mm 19.2° 1019.0 hPa 1.2 m/s 36.9 mm
 05:54     20:17    Daglengte: 14:23 Vrijdag 26 Aug
02:00 17.4° 1018.8 hPa 1.4 m/s 38.7 mm 17.4° 1018.8 hPa 1.4 m/s 38.7 mm
08:00 18.9° 1020.0 hPa 1.7 m/s 38.7 mm 18.9° 1020.0 hPa 1.7 m/s 38.7 mm
14:00 27.4° 1020.3 hPa 2.3 m/s 38.7 mm 27.4° 1020.3 hPa 2.3 m/s 38.7 mm
20:00 20.7° 1022.4 hPa 2.7 m/s 39.3 mm 20.7° 1022.4 hPa 2.7 m/s 39.3 mm
 05:56     20:15    Daglengte: 14:19 Zaterdag 27 Aug
02:00 18.4° 1023.8 hPa 0.8 m/s 39.9 mm 18.4° 1023.8 hPa 0.8 m/s 39.9 mm
08:00 16.0° 1022.5 hPa 0.4 m/s 0.3 mm
14:00 23.9° 1022.2 hPa 0.4 m/s 0.1 mm
20:00 18.6° 1022.2 hPa 0.4 m/s 0.0 mm
 05:58     20:12    Daglengte: 14:14 Zondag 28 Aug
02:00 13.8° 1023.3 hPa 0.3 m/s 0.4 mm
08:00 15.2° 1023.4 hPa 0.2 m/s 0.6 mm
14:00 22.8° 1023.1 hPa 0.1 m/s 0.4 mm
20:00 17.8° 1022.9 hPa 0.5 m/s 0.5 mm
 06:00     20:09    Daglengte: 14:09 Maandag 29 Aug
02:00 13.3° 1023.7 hPa 0.5 m/s 0.3 mm
08:00 14.9° 1023.4 hPa 0.4 m/s 0.2 mm
14:00 22.7° 1022.7 hPa 0.2 m/s 0.3 mm
20:00 17.7° 1021.9 hPa 0.5 m/s 0.4 mm
 06:02     20:07    Daglengte: 14:05 Dinsdag 30 Aug
02:00 13.4° 1022.4 hPa 0.7 m/s 0.1 mm
08:00 15.1° 1021.9 hPa 0.8 m/s 0.2 mm
14:00 22.9° 1020.9 hPa 0.6 m/s 0.4 mm
20:00 17.8° 1019.9 hPa 0.7 m/s 0.6 mm
 06:04     20:04    Daglengte: 14:00 Woensdag 31 Aug
02:00 13.5° 1019.8 hPa 0.8 m/s 0.3 mm
08:00 15.0° 1018.7 hPa 0.8 m/s 0.3 mm
14:00 21.6° 1017.4 hPa 1.0 m/s 0.7 mm
20:00 16.8° 1016.5 hPa 0.2 m/s 0.8 mm
 06:06     20:01    Daglengte: 13:55 Donderdag 01 Sep
02:00 13.2° 1016.5 hPa 1.0 m/s 0.8 mm
08:00 14.3° 1015.8 hPa 0.7 m/s 0.5 mm
FMI Hirlam - 7.5 km EWN WRFDA - 12 km DWD ICON - 7 km GFS - 25 km Basiskaart






























































Updatetijd (Europe/Amsterdam) Resolutie Lengte Stap
FMI Hirlam 07:15, 13:15, 19:15, 01:15 7.5 km 49h 1h
EWN WRFDA 10:15, 16:15, 22:15, 04:15 12 km 73h 1h
DWD ICON 11:45, 17:45, 23:45, 05:45 7 km 75h 1h
GFS 08:15, 14:15, 20:15, 02:15 25 km 237h 3h
30+ mm
25-30 mm
20-25 mm
15-20 mm
10-15 mm
6-10 mm
4-6 mm
2-4 mm
1-2 mm
0.5-1 mm
0.2-0.5 mm
0.1-0.2 mm
30+ mm
25-30 mm
20-25 mm
15-20 mm
10-15 mm
6-10 mm
4-6 mm
2-4 mm
1-2 mm
0.5-1 mm
0.2-0.5 mm
0.1-0.2 mm
Sneeuwval
Natte sneeuw
Hagel
Vorst
30+ mm
25-30 mm
20-25 mm
15-20 mm
10-15 mm
6-10 mm
4-6 mm
2-4 mm
1-2 mm
0.5-1 mm
0.2-0.5 mm
0.1-0.2 mm
Sneeuwval
Natte sneeuw
Hagel
Vorst
Onweer
50 mm
40 mm
30 mm
26 mm
22 mm
18 mm
14 mm
10 mm
9 mm
8 mm
7 mm
6 mm
5 mm
4.5 mm
4 mm
3.5 mm
3 mm
2.5 mm
2 mm
1.5 mm
1 mm
0.8 mm
0.6 mm
0.4 mm
0.2 mm
0.05 mm
35°
30°
25°
20°
15°
10°
-5°
-10°
-15°
-20°
-25°
-30°
-35°
33> m/s
29 m/s
25 m/s
21 m/s
17 m/s
14 m/s
11 m/s
8 m/s
5 m/s
3 m/s
0 m/s
2600 J/kg
2400 J/kg
2200 J/kg
2000 J/kg
1800 J/kg
1600 J/kg
1400 J/kg
1200 J/kg
1000 J/kg
800 J/kg
600 J/kg
400 J/kg
200 J/kg
70 dBZ
65 dBZ
60 dBZ
55 dBZ
50 dBZ
45 dBZ
40 dBZ
35 dBZ
30 dBZ
25 dBZ
20 dBZ
15 dBZ
10 dBZ
5 dBZ
-1 K
-2 K
-3 K
-4 K
-5 K
-6 K
-7 K
-8 K
-9 K
950 m²/s²
900 m²/s²
850 m²/s²
800 m²/s²
750 m²/s²
700 m²/s²
650 m²/s²
600 m²/s²
550 m²/s²
500 m²/s²
450 m²/s²
400 m²/s²
350 m²/s²
300 m²/s²
250 m²/s²
200 m²/s²
150 m²/s²
100 m²/s²
46 m/s
44 m/s
42 m/s
40 m/s
38 m/s
36 m/s
34 m/s
32 m/s
30 m/s
28 m/s
26 m/s
24 m/s
22 m/s
20 m/s
16 m/s
12 m/s
8 m/s
4 m/s
30 m/s
28 m/s
26 m/s
24 m/s
22 m/s
20 m/s
18 m/s
16 m/s
14 m/s
12 m/s
10 m/s
8 m/s
6 m/s
4 m/s
2 m/s
3.0
2.8
2.6
2.4
2.2
2.0
1.8
1.6
1.4
1.2
1.0
0.8
0.6
0.4
0.2
15
14
13
12
11
10
9
8
7
6
5
4
3
2
1
90%
80%
70%
60%
50%
40%
30%
20%
10%
42
40
38
36
34
32
30
28
26
24
22
20
18
16
14
12
90+ cm
80-90 cm
70-80 cm
60-70 cm
50-60 cm
40-50 cm
30-40 cm
20-30 cm
10-20 cm
1-10 cm
Sneeuwval
Natte sneeuw
Regen
>120 mm
115 mm
110 mm
105 mm
100 mm
95 mm
90 mm
85 mm
80 mm
75 mm
70 mm
65 mm
60 mm
55 mm
50 mm
45 mm
45 mm
40 mm
35 mm
30 mm
25 mm
20 mm
15 mm
10 mm
5 mm
0.1 mm
960 hPa
880 hPa
800 hPa
720 hPa
640 hPa
560 hPa
584 gpdm
568 gpdm
552 gpdm
536 gpdm
520 gpdm
504 gpdm
488 gpdm
Extreem zwaar Noodweer Kans op onweer
15% 15% 5% 50% 15%

Dag




Kaart






35°
30°
25°
20°
15°
10°